WB8ZTP Weather Reports


Display with metric or nautical units.
time (UTC)temp
F
wind
direction
speed
MPH
gust
MPH
rain 1hr
in
rain 24hr
in
rain mn
in
humidity
%
barometer
mb
20260507164604 54 221 5.0 10.0 0.00 0.00 0.00 53 1016.1
20260507163057 54 317 3.0 13.0 0.00 0.00 0.00 52 1016.2
20260507161556 54 9 3.0 11.0 0.00 0.00 0.00 53 1016.2
20260507160055 53 267 2.0 11.0 0.00 0.00 0.00 54 1016.2
20260507154554 53 194 2.0 6.0 0.00 0.00 0.00 54 1016.1
20260507153050 53 200 3.0 7.0 0.00 0.00 0.00 57 1016.1
20260507151548 52 173 4.0 9.0 0.00 0.00 0.00 59 1016.0
20260507150045 51 223 4.0 8.0 0.00 0.00 0.00 60 1016.2
20260507144543 51 249 3.0 7.0 0.00 0.00 0.00 61 1016.2
20260507143041 50 355 2.0 6.0 0.00 0.00 0.00 62 1016.3
20260507141542 50 295 1.0 7.0 0.00 0.00 0.00 63 1016.3
20260507140037 50 229 2.0 6.0 0.00 0.00 0.00 68 1016.4
20260507134537 49 198 2.0 6.0 0.00 0.00 0.00 69 1016.5
20260507133037 48 26 1.0 6.0 0.00 0.00 0.00 72 1016.7
20260507131536 48 355 1.0 5.0 0.00 0.00 0.00 73 1016.7
20260507130027 47 264 1.0 5.0 0.00 0.00 0.00 75 1016.7
20260507124530 47 171 1.0 5.0 0.00 0.00 0.00 77 1016.7
20260507123021 46 236 1.0 5.0 0.00 0.00 0.00 79 1016.6
20260507121517 45 344 0.0 5.0 0.00 0.00 0.00 81 1016.6
20260507120017 44 260 0.0 5.0 0.00 0.00 0.00 85 1016.8
20260507114510 42 273 1.0 4.0 0.00 0.00 0.00 89 1016.7
20260507113012 41 206 0.0 4.0 0.00 0.00 0.00 90 1016.7
20260507111504 40 248 0.0 2.0 0.00 0.00 0.00 90 1016.4
20260507110003 39 286 0.0 0.0 0.00 0.00 0.00 90 1016.4
20260507104503 38 286 0.0 0.0 0.00 0.00 0.00 90 1016.3
20260507103002 38 287 0.0 0.0 0.00 0.00 0.00 90 1016.3
20260507101506 38 334 0.0 0.0 0.00 0.00 0.00 90 1016.2
20260507100001 38 335 0.0 0.0 0.00 0.00 0.00 90 1016.1
20260507094606 38 337 0.0 0.0 0.00 0.00 0.00 90 1016.1
20260507093100 38 337 0.0 0.0 0.00 0.00 0.00 90 1016.0
20260507091600 38 337 0.0 0.0 0.00 0.00 0.00 90 1016.0
20260507084602 38 337 0.0 0.0 0.00 0.00 0.00 90 1015.9
20260507083058 38 337 0.0 0.0 0.00 0.00 0.00 90 1016.0
20260507081556 38 337 0.0 0.0 0.00 0.00 0.00 90 1016.0
20260507080118 38 337 0.0 0.0 0.00 0.00 0.00 90 1016.1
20260507074555 38 338 0.0 0.0 0.00 0.00 0.00 90 1016.1
20260507073104 38 337 0.0 0.0 0.00 0.00 0.00 90 1016.0
20260507071553 38 337 0.0 0.0 0.00 0.00 0.00 90 1016.1
20260507070053 39 337 0.0 0.0 0.00 0.00 0.00 90 1016.0
20260507064552 39 338 0.0 0.0 0.00 0.00 0.00 90 1016.1
20260507063055 39 337 0.0 0.0 0.00 0.00 0.00 90 1016.1
20260507061547 39 337 0.0 0.0 0.00 0.00 0.00 90 1016.2
20260507060045 39 338 0.0 0.0 0.00 0.00 0.00 90 1016.4
20260507054545 39 337 0.0 0.0 0.00 0.00 0.00 90 1016.5
20260507053042 39 337 0.0 0.0 0.00 0.00 0.00 90 1016.6
20260507051541 40 337 0.0 0.0 0.00 0.00 0.00 90 1016.7
20260507050039 40 337 0.0 0.0 0.00 0.00 0.00 90 1016.7
20260507044538 40 337 0.0 0.0 0.00 0.00 0.00 90 1016.7
20260507043036 41 337 0.0 0.0 0.00 0.00 0.00 89 1016.6
20260507041534 41 337 0.0 0.0 0.00 0.00 0.00 89 1016.6
20260507040032 42 337 0.0 0.0 0.00 0.00 0.00 89 1016.6
20260507034528 43 338 0.0 0.0 0.00 0.00 0.00 88 1016.6
20260507033029 43 337 0.0 0.0 0.00 0.00 0.00 87 1016.8
20260507031524 44 337 0.0 0.0 0.00 0.00 0.00 85 1016.8
20260507030022 45 337 0.0 0.0 0.00 0.00 0.00 84 1016.8
20260507024521 46 337 0.0 0.0 0.00 0.00 0.00 82 1016.8
20260507023019 47 337 0.0 0.0 0.00 0.00 0.00 82 1016.6
20260507021517 47 338 0.0 0.0 0.00 0.00 0.00 83 1016.4
20260507020017 47 338 0.0 0.0 0.00 0.00 0.00 84 1016.3
20260507014526 47 338 0.0 0.0 0.00 0.00 0.00 85 1016.2
20260507013035 46 338 0.0 0.0 0.00 0.00 0.00 83 1016.3
20260507011517 46 338 0.0 0.0 0.00 0.00 0.00 79 1016.1
20260507010022 47 338 0.0 0.0 0.00 0.00 0.00 77 1015.7
20260507004510 49 338 0.0 2.0 0.00 0.00 0.00 73 1015.5
20260507003010 51 360 0.0 3.0 0.00 0.00 0.00 68 1015.3
20260507001510 52 9 0.0 6.0 0.00 0.00 0.00 62 1015.3
20260507000010 52 360 3.0 7.0 0.00 0.00 0.00 61 1015.0
20260506234512 52 355 1.0 6.0 0.00 0.00 0.00 60 1015.1
20260506233009 53 5 0.0 6.0 0.00 0.00 0.00 60 1015.1
20260506231508 53 355 1.0 7.0 0.00 0.00 0.00 59 1015.4
20260506230009 53 171 0.0 3.0 0.00 0.00 0.00 63 1015.3
20260506224507 53 165 0.0 7.0 0.00 0.00 0.00 61 1015.6
20260506223005 54 49 0.0 6.0 0.00 0.00 0.00 59 1015.6
20260506221503 54 26 1.0 8.0 0.00 0.00 0.00 60 1015.1
20260506220002 54 347 2.0 8.0 0.00 0.00 0.00 60 1014.8
20260506214600 55 231 2.0 7.0 0.00 0.00 0.00 60 1014.7
20260506213122 55 9 4.0 8.0 0.00 0.00 0.00 60 1014.5
20260506211558 55 337 2.0 8.0 0.00 0.00 0.00 61 1014.3
20260506210057 55 9 2.0 9.0 0.00 0.00 0.00 60 1014.2
20260506204556 56 272 1.0 12.0 0.00 0.00 0.00 59 1014.2
20260506203055 57 228 2.0 8.0 0.00 0.00 0.00 61 1014.0
20260506201555 57 313 4.0 10.0 0.00 0.00 0.00 58 1014.0
20260506200055 57 19 4.0 12.0 0.00 0.00 0.00 59 1013.9
20260506194554 58 20 2.0 10.0 0.00 0.00 0.00 57 1013.8
20260506193053 58 285 3.0 10.0 0.00 0.00 0.00 57 1013.6
20260506191553 58 284 3.0 11.0 0.00 0.00 0.00 56 1013.8
20260506190053 58 333 1.0 9.0 0.00 0.00 0.00 59 1013.7
20260506184552 57 13 4.0 11.0 0.00 0.00 0.00 59 1013.9
20260506183056 57 350 6.0 12.0 0.00 0.00 0.00 58 1014.0
20260506181615 56 348 1.0 7.0 0.00 0.00 0.00 62 1013.9
20260506180049 56 330 4.0 12.0 0.00 0.00 0.00 62 1014.0
20260506174547 56 9 2.0 9.0 0.00 0.00 0.00 58 1014.0
20260506173057 56 5 1.0 10.0 0.00 0.00 0.00 63 1014.0
20260506171546 55 5 3.0 11.0 0.00 0.00 0.00 64 1013.9
20260506170048 55 49 3.0 7.0 0.00 0.00 0.00 66 1013.7